Regional Weather Roundup
Issued by NWS

Home | Current Version | Previous Version | Graphics & Text | Print | Product List | Glossary On
Versions: 1 2 3 4 5 6 7 8 9 10 11 12 13 14 15 16 17 18 19 20 21 22 23 24 25 26 27 28 29 30 31 32 33 34 35 36 37 38 39 40 41 42 43 44 45 46 47 48 49 50
000
ASUS43 KLOT 060308
RWRIL

ILLINOIS REGIONAL WEATHER ROUNDUP
NATIONAL WEATHER SERVICE CHICAGO/ROMEOVILLE IL
1000 PM CDT THU MAY 05 2016

NOTE: "FAIR" INDICATES FEW OR NO CLOUDS BELOW 12,000 FEET WITH NO
SIGNIFICANT WEATHER AND/OR OBSTRUCTIONS TO VISIBILITY.

* THESE STATIONS ARE NOT UNDER NWS QUALITY CONTROL. THEY ALSO MAY NOT
  REPORT WEATHER SUCH AS PRECIPITATION OR FOG.

ILZ001-002-007-009-015-016-024-060400-
NORTHWEST ILLINOIS

CITY           SKY/WX    TMP DP  RH WIND       PRES   REMARKS
MOLINE         CLEAR     50  42  74 CALM      29.99R
STERLING*      CLEAR     52  43  71 CALM      30.00R
SAVANNA*       CLEAR     50  45  80 SE3       29.99R
$$

ILZ003-004-008-010-011-017-018-060400-
NORTH CENTRAL ILLINOIS

CITY           SKY/WX    TMP DP  RH WIND       PRES   REMARKS
ROCKFORD       PTCLDY    52  41  66 CALM      30.00R
FREEPORT*      CLEAR     49  40  70 SW5       30.00S
ROCHELLE*      CLEAR     52  42  70 W5        30.00R
DE KALB*       CLEAR     55  39  53 W3        29.99S
$$

ILZ005-006-012>014-019>023-060400-
NORTHEAST ILLINOIS

CITY           SKY/WX    TMP DP  RH WIND       PRES   REMARKS
CHICAGO-OHARE  PTCLDY    49  36  61 CALM      29.98S
CHICAGO-MIDWAY CLEAR     51  37  58 SE5       29.99R
AURORA         CLEAR     51  43  74 CALM      29.99R
LANSING*       CLEAR     47  41  77 CALM      30.00R
JOLIET*        CLEAR     50  44  80 CALM      29.99S
WAUKEGAN       CLEAR     41  36  82 CALM      29.99R
DUPAGE AIRPORT CLEAR     51  39  63 CALM      29.98R
KANKAKEE*      CLEAR     51  41  69 CALM      30.00R
WHEELING       CLEAR     47  37  68 CALM      30.00R
MORRIS*        CLEAR     53  43  69 CALM      29.98R
ROMEOVILLE*    CLEAR     50  39  67 SE5       29.99S
NORTHERLY ISL    N/A     47  39  74 CALM        N/A
NORTHERLY ISL    N/A     47  39  74 CALM        N/A
$$

LMZ740>746-060400-
SOUTHERN LAKE MICHIGAN

STATION/POSITION SKY/WX   TEMP    WIND        PRES    VSBY  WAVE
                          AIR SEA DIR/SP/G                  HT/PER
                          (F)     (DEG/KT/KT) (MB)    (MI)  (FT/S)
SOUTHERN BUOY              41 40  260/  6/  6 1015.4R         2/ 5
WILMETTE HARBOR            45 44   CALM  /  2   N/A           2/ 5
HARRISON CRIB              47     290/  2/  2   N/A
BURNHAM HARBOR             47     150/  2       N/A
CALUMET HARBOR                                1014.9R
BURNS HARBOR               47     320/  3/  4 1016.3R
MICHIGAN CITY              46      10/  3/  3   N/A
ST. JOSEPH                 45 47                N/A           3/ 5
$$

ILZ025>027-034>036-040-047-049-050-058-095>099-060400-
WEST-CENTRAL ILLINOIS

CITY           SKY/WX    TMP DP  RH WIND       PRES   REMARKS
QUINCY         CLEAR     54  41  61 CALM      30.02R
GALESBURG*     CLEAR     49  42  75 CALM      30.01R
MACOMB*        CLEAR     51  41  67 W5        30.03S
JACKSONVILLE*  CLEAR     54  39  57 CALM      30.02R
PITTSFIELD*    CLEAR     52  43  72 CALM      30.04R HAZE
$$

ILZ028>032-037-038-041>044-048-051>054-059>061-060400-
CENTRAL ILLINOIS

CITY           SKY/WX    TMP DP  RH WIND       PRES   REMARKS
PONTIAC        CLEAR     56  45  67 NW3       30.00R
BLOOMINGTON    CLEAR     55  43  64 NW6       30.02R
DECATUR        CLEAR     57  42  57 NW5       30.00R
PEORIA         CLEAR     52  41  66 CALM      30.01R
LACON*         CLEAR     49  43  78 CALM      30.00R
LINCOLN*       CLEAR     56  45  67 CALM      30.01R
SPRINGFIELD    CLEAR     56  44  64 CALM      30.01R
TAYLORVILLE    CLEAR     52  46  79 NW3       30.01R
$$

ILZ033-039-045-046-055>057-062-063-060400-
EAST-CENTRAL ILLINOIS

CITY           SKY/WX    TMP DP  RH WIND       PRES   REMARKS
CHAMPAIGN      CLEAR     53  42  66 NE3       29.99R
RANTOUL*       CLEAR     55  44  67 CALM      29.99S
MATTOON        CLEAR     53  43  68 NW6       29.99R
PARIS*         CLEAR     53  44  72 CALM      29.99S
$$

ILZ079-100>102-060400-
SOUTHWEST ILLINOIS

CITY           SKY/WX    TMP DP  RH WIND       PRES   REMARKS
ALTON          PTCLDY    54  45  71 NW5       30.02R
BELLEVILLE     CLEAR     53  48  83 CALM      30.01R
CAHOKIA*       CLEAR     55  45  68 CALM      30.02R
SPARTA*        CLEAR     54  46  75 CALM      30.03R
$$

ILZ064>066-069>071-074>076-080>082-084>086-088>090-092>094-060400-
SOUTH-CENTRAL ILLINOIS

CITY           SKY/WX    TMP DP  RH WIND       PRES   REMARKS
CARBONDALE     CLEAR     51  45  79 W3        30.01R
CAIRO*         CLEAR     50  47  87 CALM      30.02S
EFFINGHAM*       N/A     53  49  89 CALM      30.01R
MARION         PTCLDY    52  48  87 CALM      30.02R
MT. VERNON     CLEAR     48  43  81 CALM      30.01R
CENTRALIA*     CLEAR     53  49  86 W3        30.00R
SALEM*         CLEAR     55  47  72 CALM      30.01R
METROPOLIS*    CLEAR     51  48  91 CALM      30.02R
$$

ILZ067-068-072-073-078-083-087-091-060400-
SOUTHEAST ILLINOIS

CITY           SKY/WX    TMP DP  RH WIND       PRES   REMARKS
LAWRENCEVILLE  CLEAR     53  47  79 NW5       29.98R
FLORA*         PTCLDY    55  46  71 NW6       30.00R
FAIRFIELD*     PTCLDY    54  47  79 CALM      29.99R
HARRISBURG*    CLEAR     54  48  80 NW7       30.00R
ROBINSON*      PTCLDY    49  44  82 NW3       29.99R
CARMI*         CLEAR     51  48  89 W7        29.98R
$$

ABBREVIATIONS USED IN REMARKS
   TC - TEMPERATURE IN CELSIUS
  WCI - WIND CHILL INDEX
   HX - HEAT INDEX
  VSB - VISIBILITY
$$





USA.gov is the U.S. government's official web portal to all federal, state and local government web resources and services.